カタログに戻る

STARLINK-5210

運用中通信VLEO
NORAD 54082·PAYLOAD·🇺🇸 United States

打ち上げ Oct 20, 2022 から Cape Canaveral Space Force Station

Loading…

次のパス (今後24時間)

TLE

最新Source: CelesTrak SupGP

元期: Sep 14, 2026, 22:09 UTC

1 54082C 22136AH  26257.92340278  .00490110  00000+0  26250-1 0  2577
2 54082  53.1609 204.0873 0001431  91.7540 156.6047 15.14266481    12

AllMySatでSTARLINK-5210をリアルタイム追跡

Download on the App Store